一网星座-0180星 (ONEWEB-0180 )

导读

ONEWEB-0180是由英国(GB)发射的卫星,于2021年4月25日8点升空,隶属于OneWeb低轨卫星互联网星座系统,旨在为全球提供高速宽带互联网服务,填补地面网络覆盖盲区。该卫星的成功发射,推进了OneWeb星座组网进程,助力全球互联网络基础设施建设。

基本信息
目录编号:
48213
目录名称:
ONEWEB-0180
国际标识:
2021-031D
轨道中心:
EARTH
卫星名称:
一网星座-0180星
卫星全名:
一网星座-0180星 (ONEWEB-0180 )
卫星状态:
在轨 (已飞行1876 天)
发射日期:
2021-04-25 UTC
国别 :
英国 (GB)
星等 :
--
轨道信息
数据来源 国际轨道数据 AOE轨道数据
星历时间 2026-06-14T05:10:17+0800
13小时前
查看轨道信息
2026-06-11T06:00:00+0800
3天前
查看轨道信息
半长轴 7583.929km 7583.924km
偏心率 0.0002113 0.0002046
轨道倾角 87.897° 87.895°
近地点辐角 112.293° 112.710°
升交点赤经 290.355° 290.945°
平近点角 247.843° 262.195°
近地点 1204.189km 1204.235km
远地点 1207.395km 1207.339km
周期 109.547分钟 109.547分钟
每日圈数 13.145026 13.145037
详细信息
平衡模式:
三轴稳定
覆盖范围:
全球
运营商:
一网卫星公司
运营商所在国:
英国
制造商(研发单位):
一网卫星公司
制造商所在国:
英国
使用方式:
暂无
卫星简介
OneWeb卫星网络由648颗重约125公斤的微型卫星组成,运行在1200公里的轨道上。 每颗卫星都能够提供至少每秒8千兆位的吞吐量,以使用其高吞吐量的Ku频段有效载荷为家庭和移动平台提供互联网接入。该卫星仍在工作。
2D轨道图
3D轨道图
轨道高度分析图
轨道倾角分析图
轨道综合分析图
查看轨道综合分析图